[[{"header":{"parameterUnit":"m.s-1","parameterCategory":1,"la1":30.2991,"la2":30.254,"lo1":-89.0895,"lo2":-89.0444,"dy":0.0017,"dx":0.0017,"nx":28,"ny":28,"refTime":"2024-06-09T03:00:00:Z","depth":0,"parameterNumber":2,"parameterNumberName":"U-component_of_WINDS"},"data":[0,0,0,0,0,0,0,0,0,0,0,0,0,0,0,0,0,0,0,0,0,0,0,0,0,0,0,0,0,0,0,0,0,0,0,0,0,0,0,0,0,0,0,0,0,0,0,0,0,0,0,0,0,0,0,0,0,0,2.285,2.285,0,2.2841,2.2841,2.2841,2.2754,2.2752,2.275,2.2748,2.2741,2.2743,2.2745,0,0,0,0,0,0,0,0,0,0,0,0,0,2.2792,2.2794,2.285,2.285,2.2849,2.2841,2.2841,2.2841,2.2755,2.2752,2.2749,2.2747,2.2741,2.2743,2.2745,0,0,0,0,0,0,0,0,0,0,0,0,0,2.2804,2.2794,2.285,2.2805,2.2801,2.2841,2.2841,2.2841,2.2755,2.2752,2.2749,2.2746,2.274,2.2743,2.2746,2.2828,0,0,2.2754,2.2755,0,0,0,0,0,0,0,0,2.2803,2.2806,2.2812,2.2809,2.2804,2.2795,2.2818,2.2836,2.2756,2.2773,2.2748,2.2744,2.2762,2.2763,2.2768,2.2827,2.2827,2.2754,2.2756,2.2757,2.2758,0,0,0,0,0,0,0,2.2803,2.2806,2.2846,2.2812,2.2807,2.2786,2.2784,2.2821,2.2786,2.2771,2.2765,2.2765,2.2759,2.2766,2.2768,2.2827,2.2754,2.2757,2.2758,2.2759,2.295,2.2953,0,0,0,0,0,0,2.2808,2.2806,2.2846,2.2846,2.2796,2.279,2.2788,2.2801,2.2785,2.278,2.2768,2.2761,2.2763,2.2765,2.2767,2.286,2.2757,2.276,2.2761,2.2946,2.295,2.2954,0,0,0,0,0,0,2.2807,2.2812,2.2847,2.2824,2.2827,2.2794,2.281,2.2803,2.2809,2.2783,2.2776,2.2781,2.276,2.2763,2.2812,2.2859,2.2761,2.2764,2.2942,2.2947,2.2952,2.3048,0,0,0,0,0,0,2.2806,2.2813,2.2844,2.2825,2.2828,2.2893,2.2813,2.2805,2.2814,2.2805,2.2793,2.2788,2.2758,2.2809,2.2815,2.2861,2.2766,2.2938,2.2945,2.2951,2.3041,2.3056,2.3069,0,0,0,0,0,2.2804,2.2872,2.2846,2.2851,2.2867,2.2895,2.2897,2.286,2.2818,2.2849,2.2831,2.2789,2.2853,2.2814,2.2821,2.2868,2.2935,2.2943,2.295,2.3035,2.3053,2.3069,0,0,0,0,0,0,2.2899,2.2869,2.2839,2.2904,2.2903,2.2881,2.2919,2.2882,2.2893,2.2885,2.2839,2.2837,2.2893,2.2885,2.2843,2.2945,2.2886,2.2895,2.2948,2.2966,2.2979,2.298,2.2768,0,0,0,0,0,2.2927,2.2952,2.2925,2.2985,2.2985,2.2952,2.2964,2.2935,2.2932,2.2932,2.2917,2.2917,2.2936,2.2951,2.2967,2.3039,2.3034,2.3075,2.3089,2.31,2.3109,2.3144,2.3161,2.2979,2.2979,2.2979,0,0,2.2986,2.2973,2.2992,2.3003,2.2999,2.3026,2.2953,2.2985,2.3004,2.2937,2.2981,2.2971,2.2967,2.3027,2.3053,2.3023,2.3158,2.311,2.312,2.3122,2.3154,2.3171,2.3186,2.2984,2.2983,2.2982,0,0,2.3106,2.31,2.3147,2.3143,2.3137,2.3114,2.3125,2.3108,2.3098,2.3142,2.3091,2.3114,2.3149,2.3148,2.3152,2.3269,2.3229,2.3275,2.3349,2.3384,2.3398,2.3411,2.3451,2.3466,2.3284,2.3284,2.3284,0,2.3181,2.3219,2.3177,2.3211,2.3217,2.3155,2.3202,2.3201,2.3201,2.3207,2.3172,2.3213,2.3207,2.3264,2.3293,2.3298,2.3309,2.3277,2.34,2.3412,2.3423,2.3461,2.3476,2.329,2.3289,2.3289,2.3288,0,2.331,2.3337,2.3376,2.3375,2.3385,2.3427,2.339,2.3406,2.3375,2.3356,2.34,2.3389,2.3402,2.3413,2.3385,2.3467,2.3448,2.3408,2.3347,2.3446,2.3481,2.3495,2.3298,2.3296,2.3294,2.3293,0,0,2.3492,2.3465,2.348,2.3477,2.3464,2.3484,2.3522,2.3532,2.3546,2.3547,2.3577,2.3607,2.3568,2.3573,2.3544,2.3574,2.3665,2.353,2.3529,2.3554,2.3752,2.3782,2.38,2.3639,2.3642,2.3644,2.3752,0,2.3607,2.3669,2.363,2.3698,2.3721,2.3661,2.3693,2.3689,2.3671,2.3688,2.3668,2.369,2.3638,2.364,2.3668,2.3649,2.3704,2.364,2.3666,2.3667,2.3668,2.3818,2.3851,2.3954,2.3766,2.3768,2.377,0,2.375,2.3755,2.3825,2.3804,2.3812,2.3842,2.3847,2.3865,2.3857,2.3842,2.3846,2.3808,2.3843,2.3783,2.3829,2.3787,2.3794,2.3787,2.379,2.379,2.3724,2.3822,2.3986,2.4001,2.3791,2.3789,2.3788,0,2.3874,2.3899,2.3942,2.3942,2.392,2.3942,2.3934,2.3923,2.3931,2.3936,2.394,2.3949,2.3954,2.3962,2.3928,2.3888,2.3978,2.3916,2.3966,2.3967,2.3988,2.3987,2.4155,2.3995,2.3995,2.3994,2.3994,0,2.4006,2.4051,2.3997,2.4025,2.4072,2.4027,2.4075,2.4061,2.4051,2.4074,2.4023,2.4046,2.3999,2.4017,2.399,2.4032,2.4035,2.4023,2.4015,2.4027,2.4029,2.4032,2.4024,2.3998,2.3997,2.3997,2.3996,0,2.4153,2.4119,2.4163,2.4137,2.4131,2.4167,2.4145,2.4169,2.4146,2.4176,2.418,2.4145,2.4163,2.4129,2.4144,2.4125,2.4183,2.4165,2.4186,2.418,2.4231,2.4227,2.4406,2.4427,2.4255,2.4256,2.4258,0,2.424,2.4272,2.4248,2.4259,2.4253,2.4272,2.4279,2.4235,2.4244,2.4237,2.4261,2.4274,2.4283,2.4314,2.429,2.43,2.4281,2.4343,2.4283,2.4293,2.4281,2.4279,2.4281,2.4356,2.4358,2.436,2.4361,0,2.4396,2.4377,2.4388,2.4393,2.4402,2.4404,2.4403,2.4415,2.4368,2.4381,2.4398,2.4404,2.4417,2.443,2.4434,2.4426,2.4386,2.438,2.4392,2.4405,2.4415,2.4408,2.4219,2.4377,2.4375,2.4374,2.4373,2.4373,2.4515,2.4539,2.4526,2.4539,2.4533,2.4532,2.4552,2.4531,2.4544,2.455,2.4523,2.4545,2.4535,2.4536,2.4531,2.4548,2.452,2.4538,2.4542,2.4547,2.4555,2.4412,2.4549,2.4548,2.4548,2.4547,2.4547,0,2.4667,2.4654,2.4667,2.4665,2.4676,2.4635,2.4631,2.4642,2.4662,2.4655,2.4663,2.4682,2.4694,2.467,2.4678,2.4696,2.4678,2.47,2.4698,2.4696,2.458,2.4568,2.4714,2.4714,2.4714,2.4714,2.4714,2.4714,2.4748,2.4787,2.4765,2.48,2.4787,2.4807,2.4808,2.4807,2.48,2.4823,2.4832,2.4815,2.4801,2.4808,2.4817,2.4809,2.4814,2.4842,2.4829,2.4721,2.4705,2.4689,2.4678,2.4844,2.4844,2.4943,2.4944,2.4945]},{"header":{"parameterUnit":"m.s-1","parameterCategory":1,"la1":30.2991,"la2":30.254,"lo1":-89.0895,"lo2":-89.0444,"dy":0.0017,"dx":0.0017,"nx":28,"ny":28,"refTime":"2024-06-09T03:00:00:Z","depth":0,"parameterNumber":3,"parameterNumberName":"V-component_of_WINDS"},"data":[0,0,0,0,0,0,0,0,0,0,0,0,0,0,0,0,0,0,0,0,0,0,0,0,0,0,0,0,0,0,0,0,0,0,0,0,0,0,0,0,0,0,0,0,0,0,0,0,0,0,0,0,0,0,0,0,0,0,3.6099,3.61,0,3.6231,3.6232,3.6234,3.6254,3.6252,3.6251,3.625,3.6379,3.6383,3.6388,0,0,0,0,0,0,0,0,0,0,0,0,0,3.5858,3.5863,3.6099,3.61,3.6102,3.6231,3.6232,3.6234,3.6254,3.6252,3.6251,3.625,3.6377,3.6383,3.6388,0,0,0,0,0,0,0,0,0,0,0,0,0,3.5973,3.5864,3.6099,3.6128,3.6131,3.623,3.6232,3.6235,3.6254,3.6252,3.625,3.6249,3.6376,3.6382,3.6389,3.6466,0,0,3.641,3.6413,0,0,0,0,0,0,0,0,3.5967,3.5982,3.6122,3.6126,3.613,3.6224,3.6195,3.6312,3.6254,3.6207,3.625,3.6248,3.6328,3.6339,3.6367,3.6472,3.6477,3.641,3.6414,3.6417,3.6419,0,0,0,0,0,0,0,3.5959,3.5977,3.6151,3.6124,3.6129,3.6132,3.6147,3.6217,3.6276,3.6211,3.6213,3.6229,3.633,3.6361,3.637,3.6479,3.641,3.6416,3.642,3.6423,3.6653,3.6655,0,0,0,0,0,0,3.5946,3.597,3.6147,3.6155,3.6043,3.6138,3.6154,3.6196,3.6275,3.6286,3.623,3.6229,3.635,3.6363,3.6375,3.6471,3.6417,3.6424,3.6427,3.6651,3.6654,3.6656,0,0,0,0,0,0,3.5941,3.5962,3.6141,3.6063,3.6086,3.6144,3.619,3.6199,3.623,3.629,3.6299,3.6251,3.6349,3.6365,3.6444,3.6475,3.6427,3.6433,3.6649,3.6652,3.6655,3.6662,0,0,0,0,0,0,3.5934,3.596,3.5991,3.6064,3.609,3.6209,3.6192,3.6203,3.6242,3.6242,3.6312,3.6321,3.6349,3.6433,3.645,3.6484,3.6438,3.6646,3.665,3.6654,3.6659,3.6665,3.667,0,0,0,0,0,3.5926,3.5987,3.5993,3.6014,3.6131,3.6211,3.6226,3.6259,3.6245,3.6276,3.6314,3.6319,3.6469,3.6441,3.646,3.6496,3.6644,3.6649,3.6654,3.6657,3.6664,3.6669,0,0,0,0,0,0,3.5914,3.5997,3.6004,3.6091,3.6144,3.6215,3.6255,3.6265,3.6322,3.6319,3.6355,3.6371,3.6447,3.6479,3.6447,3.6575,3.6555,3.6564,3.6551,3.6558,3.6563,3.6554,3.6444,0,0,0,0,0,3.5923,3.5983,3.6051,3.6121,3.6147,3.6196,3.6232,3.6253,3.6309,3.6331,3.6375,3.6427,3.6486,3.6524,3.6581,3.6664,3.6679,3.6698,3.6703,3.6707,3.6714,3.676,3.6769,3.6671,3.6671,3.6671,0,0,3.5939,3.5991,3.6027,3.612,3.6163,3.6223,3.6215,3.6279,3.6323,3.634,3.6417,3.6451,3.6511,3.6592,3.6629,3.6621,3.6744,3.6713,3.6716,3.6721,3.6765,3.6774,3.6783,3.6674,3.6674,3.6673,0,0,3.6,3.6046,3.6109,3.6154,3.6221,3.6253,3.6268,3.6337,3.6361,3.6439,3.6453,3.6505,3.6606,3.6649,3.6683,3.676,3.6767,3.6778,3.6805,3.6849,3.6857,3.6864,3.6891,3.69,3.6785,3.6785,3.6785,0,3.6011,3.6104,3.614,3.6204,3.6244,3.6264,3.6327,3.6368,3.6449,3.6475,3.6465,3.6593,3.6634,3.6725,3.6744,3.6772,3.6789,3.677,3.6854,3.6861,3.6868,3.6894,3.6904,3.6785,3.6785,3.6785,3.6785,0,3.6115,3.6179,3.6221,3.6302,3.6347,3.641,3.6453,3.6494,3.651,3.6543,3.6622,3.6673,3.6742,3.6765,3.678,3.6858,3.685,3.6847,3.6828,3.6878,3.6903,3.6913,3.6787,3.6786,3.6786,3.6786,0,0,3.6171,3.6272,3.6287,3.6324,3.6399,3.6448,3.6512,3.6581,3.6614,3.6669,3.6723,3.6808,3.6805,3.6844,3.6865,3.6904,3.6961,3.6896,3.6897,3.6906,3.7049,3.7051,3.7062,3.6966,3.6968,3.697,3.7043,0,3.6241,3.6357,3.6391,3.6488,3.6547,3.6567,3.6622,3.6673,3.6705,3.6759,3.6793,3.6853,3.6845,3.6869,3.6908,3.6946,3.699,3.6941,3.7014,3.7017,3.6999,3.7075,3.7078,3.7144,3.7053,3.7055,3.7056,0,3.6337,3.6396,3.65,3.6568,3.6594,3.6643,3.6709,3.676,3.6818,3.6839,3.6883,3.6901,3.6966,3.6944,3.7033,3.6999,3.7031,3.7054,3.7057,3.7065,3.7039,3.7084,3.7167,3.7176,3.7072,3.7071,3.707,0,3.6368,3.6473,3.6549,3.658,3.6661,3.6695,3.673,3.6787,3.6826,3.6883,3.6908,3.6971,3.7005,3.7052,3.7086,3.7067,3.7172,3.7153,3.719,3.7189,3.7211,3.7209,3.7299,3.7232,3.7232,3.7231,3.7231,0,3.6441,3.6503,3.6564,3.661,3.668,3.6718,3.6785,3.6821,3.6871,3.6924,3.6944,3.6992,3.7034,3.7087,3.7113,3.7183,3.7198,3.7215,3.7221,3.7214,3.7211,3.7234,3.723,3.7234,3.7234,3.7233,3.7233,0,3.6487,3.653,3.6614,3.6685,3.6704,3.6752,3.6812,3.6857,3.689,3.6956,3.6974,3.7025,3.7089,3.7128,3.7207,3.7225,3.7302,3.7306,3.7283,3.7286,3.7321,3.7317,3.7428,3.7445,3.7367,3.7368,3.7368,0,3.6531,3.6579,3.6656,3.6694,3.673,3.679,3.6831,3.6869,3.691,3.698,3.7016,3.7082,3.7137,3.7237,3.7281,3.7342,3.7348,3.7383,3.7357,3.7347,3.7348,3.7344,3.7349,3.7387,3.7387,3.7388,3.7388,0,3.6604,3.6623,3.6682,3.6749,3.6797,3.6851,3.6904,3.6933,3.6981,3.7026,3.7093,3.7135,3.7218,3.7282,3.7348,3.7381,3.7392,3.7396,3.7408,3.74,3.7385,3.7393,3.7295,3.7393,3.7393,3.7392,3.7392,3.7392,3.6649,3.6694,3.6755,3.682,3.6865,3.6914,3.696,3.7,3.7057,3.7129,3.7148,3.7218,3.7274,3.7363,3.7399,3.7452,3.7447,3.7464,3.7468,3.7471,3.7472,3.7377,3.7464,3.7464,3.7464,3.7464,3.7464,0,3.6723,3.6764,3.6823,3.6899,3.6949,3.6958,3.7017,3.7059,3.7121,3.7173,3.7227,3.7303,3.7366,3.7415,3.7479,3.7513,3.7519,3.7528,3.7525,3.7533,3.7474,3.7457,3.7522,3.7522,3.7522,3.7522,3.7522,3.7522,3.6767,3.6843,3.6869,3.6966,3.7006,3.7077,3.711,3.7155,3.7197,3.7283,3.7336,3.7368,3.7419,3.7487,3.7544,3.7557,3.7579,3.7587,3.76,3.7544,3.7537,3.7531,3.7516,3.7592,3.7592,3.7655,3.7656,3.7656]}]]